Regional Weather Roundup
Issued by NWS

Home | Current Version | Previous Version | Graphics & Text | Print | Product List | Glossary On
Versions: 1 2 3 4 5 6 7 8 9 10 11 12 13 14 15 16 17 18 19 20 21 22 23 24 25 26 27 28 29 30 31 32 33 34 35 36 37 38 39 40 41 42 43 44 45 46 47 48 49 50
000
ASUS43 KFSD 010402
RWRSD

WEATHER ROUNDUP FOR SOUTH DAKOTA
NATIONAL WEATHER SERVICE SIOUX FALLS SD
1100 PM CDT TUE JUN 30 2015

NOTE: "FAIR" INDICATES FEW OR NO CLOUDS BELOW 12,000 FEET WITH NO
SIGNIFICANT WEATHER AND/OR OBSTRUCTIONS TO VISIBILITY.


SDZ001>005-009-010-012>017-010500-
NORTHWEST AND NORTH CENTRAL SOUTH DAKOTA

CITY           SKY/WX    TMP DP  RH WIND       PRES   REMARKS
BUFFALO          N/A     66  60  81 E9        29.84R
FAITH            N/A     66  61  84 W28G37    29.95
MOBRIDGE       CLOUDY    68  65  90 E9        29.85F
$$

SDZ012>016-024>037-041>051-057-063-072>074-010500-
SOUTHWEST AND SOUTH CENTRAL SOUTH DAKOTA

CITY           SKY/WX    TMP DP  RH WIND       PRES   REMARKS
RAPID CTY ARPT CLEAR     70  67  90 CALM      29.92R
PIERRE         MOCLDY    66  64  93 E5        29.87R
CUSTER         CLEAR     67  62  84 CALM      30.09R
PHILIP         CLEAR     69  65  86 E7        29.87R
PINE RIDGE     PTCLDY    70  66  87 NE5       29.93R
WINNER         FAIR      71  59  65 SE13      29.87R
$$

SDZ004>011-016>023-039-040-010500-
NORTHEAST SOUTH DAKOTA

CITY           SKY/WX    TMP DP  RH WIND       PRES   REMARKS
ABERDEEN       CLOUDY    69  65  86 SE5       29.90R
WATERTOWN      PTCLDY    66  61  84 SE5       29.92R
BROOKINGS      MOCLDY    66  61  82 E9        29.93R
SISSETON         N/A     62  59  90 CALM      29.91R
$$

SDZ017-020-022-023-036>040-048>070-010500-
SOUTHEAST SOUTH DAKOTA

CITY           SKY/WX    TMP DP  RH WIND       PRES   REMARKS
SIOUX FALLS    MOCLDY    67  64  90 E5        29.89F
HURON          LGT RAIN  66  66 100 CALM      29.88S VSB 1/4
CHAMBERLAIN    PTCLDY    66  64  93 E6        29.88S
MITCHELL       MOCLDY    67  67 100 CALM      29.88R FOG
YANKTON        CLOUDY    68  64  88 E3        29.87S
$$

ABBREVIATIONS USED IN REMARKS
   TC - TEMPERATURE IN CELSIUS
  WCI - WIND CHILL INDEX
   HX - HEAT INDEX
  VSB - VISIBILITY



USA.gov is the U.S. government's official web portal to all federal, state and local government web resources and services.